Regional Weather Roundup
Issued by NWS

Home | Current Version | Previous Version | Graphics & Text | Print | Product List | Glossary On
Versions: 1 2 3 4 5 6 7 8 9 10 11 12 13 14 15 16 17 18 19 20 21 22 23 24 25 26 27 28 29 30 31 32 33 34 35 36 37 38 39 40 41 42 43 44 45 46 47 48 49 50
000
ASUS43 KLOT 280513
RWRIL

ILLINOIS REGIONAL WEATHER ROUNDUP
NATIONAL WEATHER SERVICE CHICAGO/ROMEOVILLE IL
1200 AM CDT FRI AUG 28 2015

NOTE: "FAIR" INDICATES FEW OR NO CLOUDS BELOW 12,000 FEET WITH NO
SIGNIFICANT WEATHER AND/OR OBSTRUCTIONS TO VISIBILITY.

* THESE STATIONS ARE NOT UNDER NWS QUALITY CONTROL. THEY ALSO MAY NOT
  REPORT WEATHER SUCH AS PRECIPITATION OR FOG.

ILZ001-002-007-009-015-016-024-280600-
NORTHWEST ILLINOIS

CITY           SKY/WX    TMP DP  RH WIND       PRES   REMARKS
MOLINE         PTCLDY    63  58  83 E5        30.10S
STERLING*      CLEAR     55  54  94 E5        30.11R
SAVANNA*       MOCLDY    63  58  84 CALM      30.11S
$$

ILZ003-004-008-010-011-017-018-280600-
NORTH CENTRAL ILLINOIS

CITY           SKY/WX    TMP DP  RH WIND       PRES   REMARKS
ROCKFORD       PTCLDY    59  55  87 SE5       30.14R
FREEPORT*      PTCLDY    56  55  95 S6        30.14S FOG
ROCHELLE*      CLEAR     56  54  94 CALM      30.14R
DE KALB*       CLEAR     57  55  94 E6        30.15R FOG
PERU*          CLEAR     61  57  85 E5        30.13R
$$

ILZ005-006-012>014-019>023-280600-
NORTHEAST ILLINOIS

CITY           SKY/WX    TMP DP  RH WIND       PRES   REMARKS
CHICAGO-OHARE  PTCLDY    59  54  83 CALM      30.13F
CHICAGO-MIDWAY PTCLDY    66  57  72 SE6       30.13F
AURORA         CLEAR     56  54  93 E5        30.14F FOG
LANSING*       CLEAR     60  56  85 E3        30.14F
JOLIET*        CLEAR     60  56  89 E5        30.14S
WAUKEGAN       CLEAR     56  55  97 CALM      30.13S FOG
DUPAGE AIRPORT CLEAR     57  53  86 CALM      30.14S
KANKAKEE*      CLEAR     59  57  92 CALM      30.14S
WHEELING       CLEAR     60  54  80 CALM      30.15S
MORRIS*        CLEAR     58  55  90 E3        30.12S
ROMEOVILLE*    CLEAR     59  54  84 SE5       30.13F
NORTHERLY ISL    N/A     64  59  83 SE3         N/A
$$

LMZ740>746-280600-
SOUTHERN LAKE MICHIGAN

STATION/POSITION SKY/WX   TEMP    WIND        PRES    VSBY  WAVE
                          AIR SEA DIR/SP/G                  HT/PER
                          (F)     (DEG/KT/KT) (MB)    (MI)  (FT/S)
SOUTHERN BUOY              66 69  130/  8/ 10 1020.3F         0
WILMETTE HARBOR            62 62  360/  2/  4   N/A           1
HARRISON CRIB              67     130/  9/ 10   N/A
BURNHAM HARBOR             63     200/  2/  4   N/A
CALUMET HARBOR             66     110/  6/  7   N/A
MICHIGAN CITY              62      40/  7/  7   N/A
MICHIGAN CITY 6N           65 71  110/  8/  8   N/A           1
ST. JOSEPH                 65 71  180/  8/ 10   N/A           1
$$

ILZ025>027-034>036-040-047-049-050-058-095>099-280600-
WEST-CENTRAL ILLINOIS

CITY           SKY/WX    TMP DP  RH WIND       PRES   REMARKS
QUINCY         FAIR      62  58  86 E6        30.09R
GALESBURG*     CLEAR     60  57  90 CALM      30.11R
MACOMB*        CLEAR     56  56  97 CALM      30.11S
JACKSONVILLE*  CLEAR     60  57  90 CALM      30.10S
PITTSFIELD*    CLEAR     59  56  91 CALM      30.10S
$$

ILZ028>032-037-038-041>044-048-051>054-059>061-280600-
CENTRAL ILLINOIS

CITY           SKY/WX    TMP DP  RH WIND       PRES   REMARKS
PONTIAC        CLEAR     58  58  97 E5        30.14S
BLOOMINGTON    CLEAR     60  58  93 E6        30.14S
DECATUR        CLEAR     60  55  83 CALM      30.12S
PEORIA         CLEAR     65  58  78 E6        30.10F
LACON*         CLEAR     62  57  86 E6        30.11S
LINCOLN*       CLEAR     60  56  88 CALM      30.12S
SPRINGFIELD    CLEAR     60  57  89 CALM      30.11F
TAYLORVILLE    CLEAR     57  55  94 CALM      30.11S
$$

ILZ033-039-045-046-055>057-062-063-280600-
EAST-CENTRAL ILLINOIS

CITY           SKY/WX    TMP DP  RH WIND       PRES   REMARKS
CHAMPAIGN      CLEAR     62  59  90 NE5       30.13R
RANTOUL*       CLEAR     66  59  79 NE3       30.14R
MATTOON        CLEAR     61  57  87 CALM      30.11R
PARIS*         CLEAR     59  58  97 CALM      30.12S
$$

ILZ079-100>102-280600-
SOUTHWEST ILLINOIS

CITY           SKY/WX    TMP DP  RH WIND       PRES   REMARKS
ALTON          CLEAR     59  58  97 CALM      30.10S
BELLEVILLE     CLEAR     61  61  99 CALM      30.08S
CAHOKIA*       CLEAR     63  59  87 CALM      30.09S
SPARTA*        CLEAR     61  60  95 CALM      30.11R
$$

ILZ064>066-069>071-074>076-080>082-084>086-088>090-092>094-280600-
SOUTH-CENTRAL ILLINOIS

CITY           SKY/WX    TMP DP  RH WIND       PRES   REMARKS
CARBONDALE     CLEAR     61  59  93 CALM      30.10R
CAIRO*         CLEAR     57  57 100 CALM      30.08S
EFFINGHAM*     CLEAR     59  57  92 CALM      30.12R
MARION         CLEAR     64  61  88 CALM      30.10R
MT. VERNON     CLEAR     57  52  82 CALM      30.10S
CENTRALIA*     CLEAR     58  58 100 CALM      30.09S
SALEM*         CLEAR     60  58  94 CALM      30.10S
METROPOLIS*    CLEAR     59  59 100 CALM      30.09F FOG
$$

ILZ067-068-072-073-078-083-087-091-280600-
SOUTHEAST ILLINOIS

CITY           SKY/WX    TMP DP  RH WIND       PRES   REMARKS
LAWRENCEVILLE  CLEAR     61  59  93 E3        30.11R
FLORA*         CLEAR     58  56  93 CALM      30.10S
FAIRFIELD*     CLEAR     60  59  97 CALM      30.09S
HARRISBURG*    CLEAR     60  58  94 CALM      30.10S
ROBINSON*      CLEAR     57  56  95 CALM      30.11S
CARMI*           N/A     57  56  97 CALM      30.09F FOG
$$

ABBREVIATIONS USED IN REMARKS
   TC - TEMPERATURE IN CELSIUS
  WCI - WIND CHILL INDEX
   HX - HEAT INDEX
  VSB - VISIBILITY
$$




USA.gov is the U.S. government's official web portal to all federal, state and local government web resources and services.